Location: Castle Hill Houses
(40.8186°N, 73.8497°W)
Time: 19:33:56
(UTC+00:00)

Cosmos 1825 Rocket - Pass Details

Date: 26 January 2020
Orbit: 604 x 631 km, 82.5° (Epoch: 16 February)

Event Time Altitude Azimuth Distance (km) Brightness Sun altitude
Exits shadow 09:59:06 40° 176° (S) 909 4.4 -25.0°
Drops below altitude 10° 10:01:54 10° 175° (S) 1,963 6.2 -24.4°
Sets 10:04:06 0° 175° (S) 2,867 7.1 -24.0°
